Gallup, NM

8:16 AM MST on February 27, 2017 (GMT -0700)
Gallup Municipal

Weather History for KGUP - October, 2011

Change the Weather History Date:

Friday, October 7, 2011

  Actual Average Record
Temperature  
Mean Temperature 42 °F -  
Max Temperature 50 °F 70 °F 82 °F (1979)
Min Temperature 33 °F 32 °F 20 °F (1992)
Degree Days  
Heating Degree Days 24    
Moisture  
Dew Point 32 °F    
Average Humidity 76    
Maximum Humidity 96    
Minimum Humidity 41    
Precipitation  
Precipitation 0.00 in - - ()
Sea Level Pressure  
Sea Level Pressure 29.93 in    
Wind  
Wind Speed 4 mph (WSW)    
Max Wind Speed 16 mph    
Max Gust Speed 25 mph    
Visibility 10 miles    
Events      
Averages and records for this station are not official NWS values.
T = Trace of Precipitation, MM = Missing Value Source: NWS Daily Summary

Daily Weather History Graph

Daily Weather History Graph

Search for Another Location

Airport or City:

Trip Planner

Search our weather history database for the weather conditions in past years. The results will help you decide how hot, cold, wet, or windy it might be!

Date:

Astronomy

Oct. 07, 2011 Rise Set
Actual Time 7:14 AM MDT 6:50 PM MDT
Civil Twilight 6:49 AM MDT 7:16 PM MDT
Nautical Twilight 6:19 AM MDT 7:45 PM MDT
Astronomical Twilight 5:50 AM MDT 8:15 PM MDT
Moon 4:28 PM MDT (10/7) 3:14 AM MDT (10/7)
Length of Visible Light 12h 27m
Length of Day
11h 36m
Waxing Gibbous, 84% of the Moon is Illuminated
Oct 7
Waxing Gibbous
Oct 11
Full
Oct 19
Last Quarter
Oct 26
New
Nov 2
First Quarter

Hourly Weather History & Observations

Time (MDT) Temp. Windchill Dew Point Humidity Pressure Visibility Wind Dir Wind Speed Gust Speed Precip Events Conditions
12:26 AM 37.4 °F - 35.6 °F 93% 29.96 in 10.0 mi Calm Calm - N/A   Mostly Cloudy
12:53 AM 37.0 °F - 36.0 °F 96% 29.90 in 10.0 mi Calm Calm - N/A   Mostly Cloudy
1:53 AM 39.0 °F - 36.0 °F 89% 29.88 in 10.0 mi Calm Calm - N/A   Overcast
2:51 AM 37.4 °F - 35.6 °F 93% 29.97 in 10.0 mi Calm Calm - N/A   Mostly Cloudy
2:53 AM 37.9 °F - 36.0 °F 93% 29.90 in 10.0 mi Calm Calm - N/A   Mostly Cloudy
3:53 AM 36.0 °F 33.3 °F 34.0 °F 93% 29.91 in 10.0 mi SSE 3.5 mph - N/A   Scattered Clouds
4:53 AM 35.1 °F - 33.1 °F 92% 29.91 in 10.0 mi Calm Calm - N/A   Clear
5:53 AM 35.1 °F - 33.1 °F 92% 29.92 in 10.0 mi Calm Calm - N/A   Clear
6:53 AM 33.1 °F - 32.0 °F 96% 29.95 in 10.0 mi Calm Calm - N/A   Clear
7:53 AM 34.0 °F - 33.1 °F 96% 29.94 in 10.0 mi Calm Calm - N/A   Clear
8:53 AM 39.0 °F - 35.1 °F 86% 29.91 in 10.0 mi Calm Calm - N/A   Partly Cloudy
11:53 AM 48.9 °F - 33.1 °F 54% 29.88 in 10.0 mi SSW 15.0 mph 20.7 mph N/A   Scattered Clouds
12:53 PM 46.9 °F - 32.0 °F 56% 29.89 in 10.0 mi WSW 15.0 mph 21.9 mph N/A   Mostly Cloudy
1:53 PM 48.0 °F - 28.0 °F 46% 29.86 in 10.0 mi SW 16.1 mph - N/A   Scattered Clouds
2:53 PM 50.0 °F - 27.0 °F 41% 29.84 in 10.0 mi SW 15.0 mph 25.3 mph N/A   Clear
3:53 PM 48.0 °F - 26.1 °F 42% 29.88 in 10.0 mi WSW 15.0 mph - N/A   Partly Cloudy
4:53 PM 45.0 °F 38.2 °F 33.1 °F 63% 29.94 in 10.0 mi West 15.0 mph - N/A   Scattered Clouds
5:53 PM 43.0 °F 37.2 °F 30.0 °F 60% 29.96 in 10.0 mi WNW 10.4 mph - N/A   Clear
6:53 PM 42.1 °F 38.4 °F 30.9 °F 65% 29.97 in 10.0 mi SW 5.8 mph - 0.00 in   Mostly Cloudy
7:53 PM 41.0 °F 37.1 °F 28.0 °F 60% 30.00 in 10.0 mi West 5.8 mph - N/A   Mostly Cloudy
8:53 PM 39.0 °F 32.3 °F 28.9 °F 67% 29.99 in 10.0 mi WNW 10.4 mph - N/A   Overcast
9:53 PM 36.0 °F 32.1 °F 30.0 °F 79% 29.98 in 10.0 mi West 4.6 mph - N/A   Clear
10:53 PM 34.0 °F 28.0 °F 30.0 °F 85% 30.00 in 10.0 mi WSW 6.9 mph - N/A   Mostly Cloudy
11:53 PM 36.0 °F 30.3 °F 30.0 °F 79% 29.96 in 10.0 mi SW 6.9 mph - N/A   Overcast